AC5JC-1 Weather Reports


Display with metric or nautical units.
time (UTC)temp
F
wind
direction
speed
MPH
gust
MPH
rain 1hr
in
rain 24hr
in
rain mn
in
humidity
%
barometer
mb
20180818153552 88 241 2.0 7.0 0.00 0.00 0.00 41 1037.9
20180818152538 87 219 0.0 4.0 0.00 0.00 0.00 44 1038.2
20180818151522 86 147 0.0 2.0 0.00 0.00 0.00 46 1038.1
20180818144053 83 280 0.0 2.0 0.00 0.00 0.00 55 1038.0
20180818143039 83 257 1.0 4.0 0.00 0.00 0.00 56 1038.2
20180818142025 82 243 0.0 4.0 0.00 0.00 0.00 60 1038.6
20180818134048 81 205 2.0 7.0 0.00 0.00 0.00 64 1038.5
20180818133034 79 175 2.0 7.0 0.00 0.00 0.00 67 1038.6
20180818132020 79 181 0.0 2.0 0.00 0.00 0.00 69 1038.4
20180818124548 78 215 0.0 2.0 0.00 0.00 0.00 75 1038.3
20180818123533 77 216 0.0 2.0 0.00 0.00 0.00 75 1038.1
20180818122520 77 179 1.0 4.0 0.00 0.00 0.00 75 1037.9
20180818115555 78 173 2.0 7.0 0.00 0.00 0.00 75 1037.5
20180818114540 78 180 3.0 7.0 0.00 0.00 0.00 75 1037.3
20180818113524 78 169 1.0 4.0 0.00 0.00 0.00 74 1037.2
20180818110559 78 179 3.0 7.0 0.00 0.00 0.00 73 1037.2
20180818105546 78 180 2.0 4.0 0.00 0.00 0.00 72 1037.1
20180818104534 79 163 2.0 7.0 0.00 0.00 0.00 71 1037.1
20180818103521 79 147 3.0 7.0 0.00 0.00 0.00 70 1037.2
20180818100559 79 163 3.0 9.0 0.00 0.00 0.00 69 1037.4
20180818095547 79 174 2.0 4.0 0.00 0.00 0.00 68 1037.4
20180818094534 80 160 4.0 12.0 0.00 0.00 0.00 67 1037.7
20180818093521 80 158 5.0 9.0 0.00 0.00 0.00 66 1037.5
20180818090558 81 171 4.0 9.0 0.00 0.00 0.00 61 1037.2
20180818085546 81 180 2.0 7.0 0.00 0.00 0.00 60 1037.0
20180818084533 81 168 5.0 7.0 0.00 0.00 0.00 60 1036.9
20180818083521 81 160 3.0 9.0 0.00 0.00 0.00 59 1036.9
20180818080558 82 167 4.0 7.0 0.00 0.00 0.00 58 1036.9
20180818075545 82 186 4.0 12.0 0.00 0.00 0.00 56 1036.9
20180818074532 83 178 3.0 7.0 0.00 0.00 0.00 56 1036.9
20180818073518 83 181 4.0 12.0 0.00 0.00 0.00 56 1036.9
20180818070048 84 170 5.0 17.0 0.00 0.00 0.00 56 1036.9
20180818065036 84 178 4.0 12.0 0.00 0.00 0.00 57 1037.2
20180818064023 84 181 6.0 9.0 0.00 0.00 0.00 57 1037.0
20180818060048 85 175 7.0 15.0 0.00 0.00 0.00 55 1036.7
20180818055034 86 162 7.0 15.0 0.00 0.00 0.00 53 1036.9
20180818054021 86 173 7.0 12.0 0.00 0.00 0.00 53 1036.7
20180818051057 86 164 10.0 15.0 0.00 0.00 0.00 51 1036.5
20180818050044 86 147 7.0 12.0 0.00 0.00 0.00 50 1036.2
20180818045031 87 152 8.0 12.0 0.00 0.00 0.00 50 1036.1
20180818044019 87 160 8.0 17.0 0.00 0.00 0.00 49 1036.3
20180818041057 88 160 8.0 12.0 0.00 0.00 0.00 43 1036.5
20180818040044 89 165 5.0 12.0 0.00 0.00 0.00 41 1036.3
20180818035032 89 156 6.0 15.0 0.00 0.00 0.00 39 1036.3
20180818034019 90 177 5.0 9.0 0.00 0.00 0.00 36 1036.3
20180818031058 90 135 5.0 9.0 0.00 0.00 0.00 34 1035.9
20180818030044 90 126 4.0 9.0 0.00 0.00 0.00 34 1036.1
20180818025032 90 142 4.0 7.0 0.00 0.00 0.00 34 1035.9
20180818024019 90 167 3.0 7.0 0.00 0.00 0.00 34 1035.9
20180818021058 91 141 4.0 7.0 0.00 0.00 0.00 34 1035.9
20180818020044 91 160 1.0 2.0 0.00 0.00 0.00 33 1035.9
20180818015032 92 156 2.0 7.0 0.00 0.00 0.00 34 1035.9
20180818014019 92 155 1.0 4.0 0.00 0.00 0.00 33 1035.7
20180818011056 94 152 3.0 7.0 0.00 0.00 0.00 29 1035.3
20180818010044 95 138 2.0 7.0 0.00 0.00 0.00 27 1035.3
20180818005031 95 145 4.0 9.0 0.00 0.00 0.00 25 1035.0
20180818004019 96 154 5.0 12.0 0.00 0.00 0.00 25 1035.0
20180818001058 97 146 4.0 9.0 0.00 0.00 0.00 23 1034.6
20180818000045 97 165 4.0 9.0 0.00 0.00 0.00 24 1034.7
20180817235030 98 183 5.0 9.0 0.00 0.00 0.00 23 1034.6
20180817234018 98 187 3.0 7.0 0.00 0.00 0.00 25 1034.8
20180817231055 98 198 3.0 9.0 0.00 0.00 0.00 26 1035.0
20180817230043 98 183 2.0 4.0 0.00 0.00 0.00 26 1034.9
20180817225030 98 173 3.0 7.0 0.00 0.00 0.00 26 1034.9
20180817224018 98 168 6.0 9.0 0.00 0.00 0.00 26 1035.0
20180817221600 99 171 5.0 12.0 0.00 0.00 0.00 26 1035.2
20180817220547 100 102 2.0 4.0 0.00 0.00 0.00 26 1035.2
20180817215533 100 175 6.0 12.0 0.00 0.00 0.00 24 1035.3
20180817214518 100 235 1.0 4.0 0.00 0.00 0.00 24 1035.4
20180817211550 99 150 2.0 4.0 0.00 0.00 0.00 25 1036.0
20180817210536 99 167 3.0 7.0 0.00 0.00 0.00 24 1036.2
20180817205521 99 260 0.0 4.0 0.00 0.00 0.00 25 1036.1
20180817202051 98 205 1.0 2.0 0.00 0.00 0.00 27 1036.9
20180817201037 98 271 0.0 2.0 0.00 0.00 0.00 28 1037.1
20180817200024 97 275 0.0 2.0 0.00 0.00 0.00 28 1037.2
20180817192551 96 270 0.0 2.0 0.00 0.00 0.00 29 1037.4
20180817191537 95 250 1.0 2.0 0.00 0.00 0.00 31 1037.5
20180817190523 95 245 1.0 4.0 0.00 0.00 0.00 30 1037.6
20180817183052 95 260 1.0 4.0 0.00 0.00 0.00 31 1037.6
20180817182038 95 190 1.0 4.0 0.00 0.00 0.00 31 1037.8
20180817181023 94 242 1.0 4.0 0.00 0.00 0.00 31 1037.9
20180817173549 93 248 1.0 4.0 0.00 0.00 0.00 34 1038.7
20180817172536 92 170 0.0 2.0 0.00 0.00 0.00 35 1038.6
20180817171523 92 256 0.0 2.0 0.00 0.00 0.00 37 1038.9
20180817164048 91 168 0.0 2.0 0.00 0.00 0.00 39 1039.1
20180817163035 90 211 1.0 4.0 0.00 0.00 0.00 39 1039.3
20180817162021 89 187 1.0 4.0 0.00 0.00 0.00 39 1039.3